Weather History for Eureka, N. W. T., Nunavut

Change the Weather History Date:

Tuesday, November 13, 2012

  Actual Average Record
Temperature  
Mean Temperature -29 °F -  
Max Temperature -25 °F -21 °F - ()
Min Temperature -33 °F -34 °F - ()
Degree Days  
Heating Degree Days 94    
Moisture  
Dew Point -38 °F    
Average Humidity 63    
Maximum Humidity 69    
Minimum Humidity 48    
Precipitation  
Precipitation 0.00 in 0.00 in - ()
Sea Level Pressure  
Sea Level Pressure 29.48 in    
Wind  
Wind Speed 1 mph ()    
Max Wind Speed 4 mph    
Max Gust Speed -    
Visibility 15.0 miles    
Events Snow    
T = Trace of Precipitation, MM = Missing Value Source: Averaged Metar Reports

Daily Weather History Graph

Daily Weather History Graph

Search for Another Location

Airport:

Trip Planner

Search our weather history database for the weather conditions in past years. The results will help you decide how hot, cold, wet, or windy it might be!

Date:

Astronomy

Dec. 31, 1969 Rise Set
Actual Time Sun does not rise Sun does not rise
Civil Twilight Sun does not rise Sun does not rise
Nautical Twilight 7:55 AM CST 2:58 PM CST
Astronomical Twilight 5:24 AM CST 5:28 PM CST
Moon No Moon Rise No Moon Set
Length of Visible Light 0h 00m
Length of Day
0h 00m
Waning Crescent, 0% of the Moon is Illuminated
Nov 13
Waning Crescent
Nov 13
New
Nov 20
First Quarter
Nov 28
Full
Dec 6
Last Quarter

Hourly Weather History & Observations

Time (CST) Temp. Windchill Dew Point Humidity Pressure Visibility Wind Dir Wind Speed Gust Speed Precip Events Conditions
12:00 AM -31 °F - -38 °F 52% 29.55 in 15 mi Calm Calm - - Snow Snow
12:00 AM -31.0 °F - -38.2 °F 68% 29.55 in 15.0 mi Calm Calm - N/A   Clear
1:00 AM -31.0 °F - -38.2 °F 68% 29.55 in 15.0 mi Calm Calm - N/A   Clear
2:00 AM -31.0 °F - -38.2 °F 68% 29.53 in 15.0 mi WNW 2.3 mph - N/A   Clear
3:00 AM -31.0 °F -43.3 °F -38.2 °F 68% 29.52 in 15.0 mi West 3.5 mph - N/A   Clear
4:00 AM -29.2 °F - -38.2 °F 62% 29.52 in 15.0 mi NW 2.3 mph - N/A   Clear
5:00 AM -32.8 °F -45.3 °F -40.0 °F 68% 29.50 in 15.0 mi WNW 3.5 mph - N/A   Clear
6:00 AM -30 °F - -38 °F 49% 29.49 in 15 mi NNW 2.3 mph - - Snow Snow
6:00 AM -29.2 °F - -38.2 °F 62% 29.49 in 15.0 mi NNW 2.3 mph - N/A   Clear
7:00 AM -32.8 °F - -40.0 °F 68% 29.49 in 15.0 mi Calm Calm - N/A   Clear
8:00 AM -31.0 °F - -40.0 °F 62% 29.48 in 15.0 mi Calm Calm - N/A   Partly Cloudy
9:00 AM -31.0 °F - -40.0 °F 62% 29.47 in 15.0 mi Calm Calm - N/A   Partly Cloudy
10:00 AM -29.2 °F - -38.2 °F 62% 29.47 in 15.0 mi Calm Calm - N/A   Partly Cloudy
11:00 AM -29.2 °F - -38.2 °F 62% 29.47 in 15.0 mi Calm Calm - N/A   Partly Cloudy
12:00 PM -31 °F - -39 °F 48% 29.47 in 15 mi Calm Calm - - Snow Snow
12:00 PM -31.0 °F - -38.2 °F 68% 29.47 in 15.0 mi Calm Calm - N/A   Partly Cloudy
1:00 PM -31.0 °F - -38.2 °F 68% 29.47 in 15.0 mi Calm Calm - N/A   Partly Cloudy
2:00 PM -29.2 °F - -38.2 °F 62% 29.47 in 15.0 mi Calm Calm - N/A   Clear
3:00 PM -29.2 °F - -36.4 °F 68% 29.46 in 15.0 mi SSE 2.3 mph - N/A   Clear
4:00 PM -29.2 °F - -38.2 °F 62% 29.47 in 15.0 mi East 2.3 mph - N/A   Clear
5:00 PM -27.4 °F - -36.4 °F 62% 29.47 in 15.0 mi Calm Calm - N/A   Clear
6:00 PM -27 °F - -34 °F 54% 29.46 in 15 mi SE 2.3 mph - - Snow Snow
6:00 PM -27.4 °F - -34.6 °F 69% 29.46 in 15.0 mi SE 2.3 mph - N/A   Clear
7:00 PM -25.6 °F - -32.8 °F 69% 29.45 in 15.0 mi Calm Calm - N/A   Clear
8:00 PM -27.4 °F - -34.6 °F 69% 29.44 in 15.0 mi East 2.3 mph - N/A   Clear
9:00 PM -27.4 °F - -34.6 °F 69% 29.43 in 15.0 mi Calm Calm - N/A   Clear